DW2128 Weather Reports


Display with metric or nautical units.
time (UTC)temp
F
wind
direction
speed
MPH
gust
MPH
rain 1hr
in
rain 24hr
in
rain mn
in
humidity
%
barometer
mb
20260504173525 63 355 1.0 0.0 0.00 0.00 0.00 48 1013.1
20260504173334 63 259 0.0 0.0 0.00 0.00 0.00 49 1013.0
20260504172051 64 243 1.0 0.0 0.00 0.00 0.00 48 1013.1
20260504171835 64 238 1.0 0.0 0.00 0.00 0.00 47 1012.9
20260504170530 64 325 0.0 0.0 0.00 0.00 0.00 49 1012.9
20260504170319 64 325 0.0 0.0 0.00 0.00 0.00 49 1013.0
20260504160346 60 122 0.0 0.0 0.00 0.00 0.00 59 1013.3
20260504150522 54 125 0.0 0.0 0.00 0.00 0.00 70 1013.2
20260504150330 54 125 0.0 0.0 0.00 0.00 0.00 71 1013.1
20260504140531 49 143 0.0 0.0 0.00 0.00 0.00 82 1013.0
20260504140356 48 143 0.0 0.0 0.00 0.00 0.00 82 1013.0
20260504130554 48 143 0.0 0.0 0.00 0.00 0.00 81 1012.2
20260504130342 48 143 0.0 0.0 0.00 0.00 0.00 81 1012.2
20260504110522 49 143 0.0 0.0 0.00 0.00 0.00 77 1012.4
20260504110332 49 143 0.0 0.0 0.00 0.00 0.00 77 1012.5
20260504100530 50 143 0.0 0.0 0.00 0.00 0.00 76 1012.3
20260504100355 50 143 0.0 0.0 0.00 0.00 0.00 76 1012.3
20260504081829 51 143 0.0 0.0 0.00 0.00 0.00 75 1013.0
20260504080523 51 143 0.0 0.0 0.00 0.00 0.00 74 1013.0
20260504080332 51 143 0.0 0.0 0.00 0.00 0.00 74 1013.0
20260504070333 53 143 0.0 0.0 0.00 0.00 0.00 67 1012.9
20260504050522 56 230 0.0 0.0 0.00 0.00 0.00 58 1012.6
20260504050327 56 230 0.0 0.0 0.00 0.00 0.00 58 1012.3
20260504045022 57 231 0.0 0.0 0.00 0.00 0.00 56 1012.3
20260504044825 57 230 0.0 0.0 0.00 0.00 0.00 55 1012.1
20260504043519 57 230 1.0 0.0 0.00 0.00 0.00 55 1012.1
20260504043348 57 231 1.0 0.0 0.00 0.00 0.00 55 1012.0
20260504042021 57 232 1.0 0.0 0.00 0.00 0.00 56 1012.0
20260504041825 57 232 1.0 0.0 0.00 0.00 0.00 56 1012.0
20260504040603 56 203 0.0 0.0 0.00 0.00 0.00 57 1011.9
20260504040322 56 203 0.0 0.0 0.00 0.00 0.00 57 1011.5
20260504035037 57 202 0.0 0.0 0.00 0.00 0.00 56 1011.5
20260504034826 57 202 0.0 0.0 0.00 0.00 0.00 57 1011.4
20260504033521 57 202 0.0 0.0 0.00 0.00 0.00 57 1011.4
20260504033327 57 203 0.0 0.0 0.00 0.00 0.00 57 1011.0
20260504032026 57 235 3.0 0.0 0.00 0.00 0.00 57 1011.0
20260504031855 57 186 2.0 0.0 0.00 0.00 0.00 57 1010.9
20260504030529 58 232 4.0 0.0 0.00 0.00 0.00 57 1010.9
20260504030334 58 192 4.0 0.0 0.00 0.00 0.00 57 1010.9
20260504025028 59 240 4.0 0.0 0.00 0.00 0.00 56 1010.9
20260504024833 59 224 4.0 0.0 0.00 0.00 0.00 56 1010.5
20260504023527 60 270 4.0 0.0 0.00 0.00 0.00 56 1010.5
20260504023335 60 219 3.0 0.0 0.00 0.00 0.00 56 1010.5
20260504022034 60 201 4.0 0.0 0.00 0.00 0.00 54 1010.5
20260504021857 60 199 5.0 0.0 0.00 0.00 0.00 54 1010.5
20260504020533 61 205 5.0 0.0 0.00 0.00 0.00 52 1010.5
20260504020337 61 225 4.0 0.0 0.00 0.00 0.00 51 1010.5
20260504015052 62 244 5.0 0.0 0.00 0.00 0.00 51 1010.5
20260504014839 62 231 5.0 0.0 0.00 0.00 0.00 52 1010.5
20260504013553 62 193 4.0 0.0 0.00 0.00 0.00 49 1010.5
20260504013336 62 184 4.0 0.0 0.00 0.00 0.00 49 1010.5
20260504012033 62 219 5.0 0.0 0.00 0.00 0.00 46 1010.5
20260504011837 62 220 5.0 0.0 0.00 0.00 0.00 46 1010.5
20260504010535 62 223 5.0 0.0 0.00 0.00 0.00 44 1010.5
20260504010326 62 217 5.0 0.0 0.00 0.00 0.00 44 1010.5
20260504005041 63 218 4.0 0.0 0.00 0.00 0.00 43 1010.5
20260504004823 63 225 4.0 0.0 0.00 0.00 0.00 43 1010.4
20260504003540 64 211 4.0 0.0 0.00 0.00 0.00 43 1010.4
20260504003322 64 211 4.0 0.0 0.00 0.00 0.00 42 1010.4
20260504002038 65 221 5.0 0.0 0.00 0.00 0.00 41 1010.4
20260504001827 65 223 5.0 0.0 0.00 0.00 0.00 41 1010.2
20260504000601 65 226 5.0 0.0 0.00 0.00 0.00 39 1010.2
20260504000321 66 238 5.0 0.0 0.00 0.00 0.00 40 1010.1
20260503235039 66 206 4.0 0.0 0.00 0.00 0.00 41 1010.1
20260503234821 66 165 4.0 0.0 0.00 0.00 0.00 39 1010.3
20260503233537 66 210 5.0 0.0 0.00 0.00 0.00 41 1010.3
20260503233327 66 185 4.0 0.0 0.00 0.00 0.00 41 1010.5
20260503232022 64 174 7.0 0.0 0.00 0.00 0.00 43 1010.5
20260503231826 65 247 8.0 0.0 0.00 0.00 0.00 43 1010.3
20260503230521 65 225 6.0 0.0 0.00 0.00 0.00 45 1010.3
20260503230330 65 221 6.0 0.0 0.00 0.00 0.00 44 1010.4
20260503225044 66 225 4.0 0.0 0.00 0.00 0.00 44 1010.4
20260503224826 66 269 4.0 0.0 0.00 0.00 0.00 45 1010.5
20260503223520 65 230 5.0 0.0 0.00 0.00 0.00 46 1010.5
20260503223324 65 208 5.0 0.0 0.00 0.00 0.00 47 1010.5
20260503222022 64 178 5.0 0.0 0.00 0.00 0.00 49 1010.5
20260503221851 64 64 6.0 0.0 0.00 0.00 0.00 49 1010.5
20260503220525 64 249 4.0 0.0 0.00 0.00 0.00 51 1010.5
20260503220349 64 234 4.0 0.0 0.00 0.00 0.00 50 1010.6
20260503215044 63 236 5.0 0.0 0.00 0.00 0.00 51 1010.6
20260503214828 63 248 5.0 0.0 0.00 0.00 0.00 52 1010.9
20260503213525 62 226 4.0 0.0 0.00 0.00 0.00 54 1010.8
20260503213350 62 211 4.0 0.0 0.00 0.00 0.00 53 1010.8
20260503212024 62 204 5.0 0.0 0.00 0.00 0.00 55 1010.8
20260503211832 62 217 5.0 0.0 0.00 0.00 0.00 54 1010.7
20260503210527 62 249 3.0 0.0 0.00 0.00 0.00 53 1010.7
20260503210331 62 240 3.0 0.0 0.00 0.00 0.00 53 1010.8
20260503205046 62 249 4.0 0.0 0.00 0.00 0.00 53 1010.8
20260503204833 62 229 4.0 0.0 0.00 0.00 0.00 52 1010.9
20260503203546 62 208 5.0 0.0 0.00 0.00 0.00 52 1010.9
20260503203333 62 224 5.0 0.0 0.00 0.00 0.00 52 1011.0
20260503202026 63 211 2.0 0.0 0.00 0.00 0.00 50 1011.0
20260503201830 63 223 3.0 0.0 0.00 0.00 0.00 50 1011.0
20260503200525 62 213 2.0 0.0 0.00 0.00 0.00 49 1011.0
20260503200335 62 135 2.0 0.0 0.00 0.00 0.00 49 1011.0
20260503195030 62 210 2.0 0.0 0.00 0.00 0.00 50 1011.0
20260503194836 62 216 2.0 0.0 0.00 0.00 0.00 50 1011.1
20260503193531 62 231 3.0 0.0 0.00 0.00 0.00 52 1011.1
20260503193339 62 223 3.0 0.0 0.00 0.00 0.00 51 1011.0
20260503192035 62 214 2.0 0.0 0.00 0.00 0.00 52 1011.0
20260503191822 62 217 2.0 0.0 0.00 0.00 0.00 51 1011.1
20260503190537 62 157 1.0 0.0 0.00 0.00 0.00 53 1011.1
20260503190341 62 156 2.0 0.0 0.00 0.00 0.00 53 1011.2
20260503185035 61 233 3.0 0.0 0.00 0.00 0.00 55 1011.2
20260503184826 61 232 3.0 0.0 0.00 0.00 0.00 55 1011.2
20260503183528 60 225 3.0 0.0 0.00 0.00 0.00 57 1011.2
20260503183332 60 225 2.0 0.0 0.00 0.00 0.00 57 1011.4
20260503182031 60 238 2.0 0.0 0.00 0.00 0.00 60 1011.4
20260503181836 60 217 2.0 0.0 0.00 0.00 0.00 60 1011.3
20260503180550 59 225 3.0 0.0 0.00 0.00 0.00 62 1011.3
20260503180337 59 252 3.0 0.0 0.00 0.00 0.00 62 1011.4
20260503175036 58 237 3.0 0.0 0.00 0.00 0.00 66 1011.4
20260503174840 58 225 3.0 0.0 0.00 0.00 0.00 67 1011.5